Weather History for KPEA - March, 2014

Change the Weather History Date:

Thursday, March 20, 2014

  Actual Average (KOXV) Record (KOXV)
Temperature  
Mean Temperature 41 °F -  
Max Temperature 56 °F 51 °F 74 °F (1972)
Min Temperature 26 °F 30 °F 3 °F (1965)
Degree Days  
Heating Degree Days 24    
Moisture  
Dew Point 28 °F    
Average Humidity 63    
Maximum Humidity 89    
Minimum Humidity 34    
Precipitation  
Precipitation 0.00 in - - ()
Sea Level Pressure  
Sea Level Pressure 30.00 in    
Wind  
Wind Speed 5 mph (ESE)    
Max Wind Speed 10 mph    
Max Gust Speed -    
Visibility 10 miles    
Events      
Averages and records for this station are not official NWS values.
T = Trace of Precipitation, MM = Missing Value Source: NWS Daily Summary

Daily Weather History Graph

Daily Weather History Graph

Search for Another Location

Airport or City:

Trip Planner

Search our weather history database for the weather conditions in past years. The results will help you decide how hot, cold, wet, or windy it might be!

Date:

Astronomy

Mar. 20, 2014 Rise Set
Actual Time 7:15 AM CDT 7:23 PM CDT
Civil Twilight 6:47 AM CDT 7:51 PM CDT
Nautical Twilight 6:15 AM CDT 8:23 PM CDT
Astronomical Twilight 5:42 AM CDT 8:56 PM CDT
Moon 11:47 PM CDT (3/20) 9:19 AM CDT (3/20)
Length of Visible Light 13h 04m
Length of Day
12h 08m
Waning Gibbous, 84% of the Moon is Illuminated
Mar 20
Waning Gibbous
Mar 23
Last Quarter
Mar 30
New
Apr 7
First Quarter
Apr 15
Full

Hourly Weather History & Observations

Time (CDT) Temp. Windchill Dew Point Humidity Pressure Visibility Wind Dir Wind Speed Gust Speed Precip Events Conditions
12:15 AM 32.0 °F 27.5 °F 26.1 °F 79% 30.05 in 10.0 mi SW 4.6 mph - N/A   Clear
12:35 AM 31.8 °F 26.2 °F 25.7 °F 78% 30.04 in 10.0 mi SW 5.8 mph - N/A   Clear
12:55 AM 32.0 °F 27.5 °F 25.7 °F 78% 30.04 in 10.0 mi SW 4.6 mph - N/A   Clear
1:15 AM 32.0 °F 27.5 °F 25.3 °F 76% 30.03 in 10.0 mi SW 4.6 mph - N/A   Clear
1:35 AM 31.1 °F 27.7 °F 25.2 °F 79% 30.03 in 10.0 mi SSW 3.5 mph - N/A   Clear
1:55 AM 31.8 °F 27.3 °F 25.2 °F 76% 30.03 in 10.0 mi SW 4.6 mph - N/A   Clear
2:15 AM 32.0 °F 27.5 °F 25.3 °F 76% 30.03 in 10.0 mi SW 4.6 mph - N/A   Clear
2:35 AM 32.0 °F 27.5 °F 25.3 °F 76% 30.03 in 10.0 mi West 4.6 mph - N/A   Scattered Clouds
2:55 AM 32.0 °F 26.4 °F 25.2 °F 76% 30.02 in 10.0 mi West 5.8 mph - N/A   Scattered Clouds
3:15 AM 30.6 °F 24.7 °F 24.6 °F 79% 30.03 in 10.0 mi North 5.8 mph - N/A   Clear
3:35 AM 30.0 °F 25.2 °F 25.2 °F 82% 30.04 in 10.0 mi NW 4.6 mph - N/A   Scattered Clouds
3:55 AM 30.0 °F 24.1 °F 25.2 °F 82% 30.04 in 10.0 mi West 5.8 mph - N/A   Clear
4:15 AM 31.1 °F 24.5 °F 25.3 °F 79% 30.04 in 10.0 mi West 6.9 mph - N/A   Scattered Clouds
4:35 AM 31.6 °F 25.1 °F 25.3 °F 78% 30.04 in 10.0 mi West 6.9 mph - N/A   Mostly Cloudy
4:55 AM 30.9 °F 24.3 °F 24.8 °F 78% 30.05 in 10.0 mi West 6.9 mph - N/A   Scattered Clouds
5:15 AM 30.2 °F 24.3 °F 24.8 °F 80% 30.05 in 10.0 mi WNW 5.8 mph - N/A   Clear
5:35 AM 29.1 °F 24.1 °F 24.6 °F 83% 30.05 in 10.0 mi West 4.6 mph - N/A   Clear
5:55 AM 29.7 °F 24.7 °F 24.8 °F 82% 30.06 in 10.0 mi West 4.6 mph - N/A   Clear
6:15 AM 29.3 °F 23.2 °F 23.7 °F 80% 30.06 in 10.0 mi West 5.8 mph - N/A   Clear
6:35 AM 29.3 °F 24.3 °F 24.8 °F 83% 30.06 in 10.0 mi West 4.6 mph - N/A   Clear
6:55 AM 26.2 °F - 22.6 °F 86% 30.05 in 10.0 mi Calm Calm - N/A   Clear
7:15 AM 28.4 °F - 25.3 °F 88% 30.06 in 10.0 mi Calm Calm - N/A   Clear
7:35 AM 27.1 °F - 23.5 °F 86% 30.06 in 10.0 mi Calm Calm - N/A   Clear
7:55 AM 27.5 °F - 24.6 °F 89% 30.06 in 10.0 mi Calm Calm - N/A   Clear
8:15 AM 31.6 °F - 28.2 °F 87% 30.06 in 10.0 mi Calm Calm - N/A   Clear
8:35 AM 32.9 °F - 28.4 °F 84% 30.06 in 10.0 mi Calm Calm - N/A   Scattered Clouds
8:55 AM 34.0 °F - 28.8 °F 81% 30.07 in 10.0 mi Calm Calm - N/A   Clear
9:15 AM 36.7 °F - 30.4 °F 78% 30.07 in 10.0 mi Calm Calm - N/A   Clear
9:35 AM 38.1 °F - 31.6 °F 77% 30.06 in 10.0 mi Calm Calm - N/A   Clear
9:55 AM 39.7 °F 37.6 °F 31.5 °F 72% 30.06 in 10.0 mi ESE 3.5 mph - N/A   Clear
10:15 AM 39.2 °F - 31.8 °F 75% 30.06 in 10.0 mi Calm Calm - N/A   Clear
10:35 AM 42.8 °F 40.1 °F 32.2 °F 66% 30.06 in 10.0 mi ESE 4.6 mph - N/A   Clear
10:55 AM 43.7 °F 41.1 °F 32.5 °F 65% 30.06 in 10.0 mi ESE 4.6 mph - N/A   Clear
11:15 AM 45.0 °F 43.5 °F 32.4 °F 61% 30.06 in 10.0 mi SE 3.5 mph - N/A   Clear
11:35 AM 45.3 °F 43.0 °F 32.2 °F 60% 30.05 in 10.0 mi East 4.6 mph - N/A   Clear
11:55 AM 47.3 °F - 31.6 °F 55% 30.04 in 10.0 mi East 4.6 mph - N/A   Clear
12:15 PM 48.0 °F - 30.6 °F 51% 30.04 in 10.0 mi East 4.6 mph - N/A   Clear
12:35 PM 49.8 °F - 30.7 °F 48% 30.03 in 10.0 mi East 6.9 mph - N/A   Clear
12:55 PM 50.0 °F - 30.4 °F 47% 30.01 in 10.0 mi ESE 5.8 mph - N/A   Clear
1:15 PM 51.1 °F - 28.8 °F 42% 30.01 in 10.0 mi ESE 6.9 mph - N/A   Clear
1:35 PM 51.3 °F - 27.7 °F 40% 30.00 in 10.0 mi Calm Calm - N/A   Clear
1:55 PM 52.2 °F - 27.7 °F 39% 29.99 in 10.0 mi East 6.9 mph - N/A   Clear
2:15 PM 53.8 °F - 27.1 °F 36% 29.98 in 10.0 mi ENE 3.5 mph - N/A   Clear
2:35 PM 54.3 °F - 27.7 °F 36% 29.97 in 10.0 mi East 3.5 mph - N/A   Clear
2:55 PM 54.9 °F - 27.7 °F 35% 29.96 in 10.0 mi SE 4.6 mph - N/A   Clear
3:15 PM 55.2 °F - 27.9 °F 35% 29.95 in 10.0 mi East 8.1 mph - N/A   Clear
3:35 PM 55.9 °F - 28.0 °F 34% 29.94 in 10.0 mi East 8.1 mph - N/A   Clear
3:55 PM 56.5 °F - 29.1 °F 35% 29.93 in 10.0 mi ESE 10.4 mph - N/A   Clear
4:15 PM 55.8 °F - 29.1 °F 36% 29.92 in 10.0 mi SE 9.2 mph - N/A   Clear
4:35 PM 55.8 °F - 29.5 °F 37% 29.92 in 10.0 mi ESE 8.1 mph - N/A   Clear
4:55 PM 54.9 °F - 29.3 °F 38% 29.93 in 10.0 mi SE 5.8 mph - N/A   Clear
5:15 PM 54.1 °F - 30.2 °F 40% 29.93 in 10.0 mi East 8.1 mph - N/A   Clear
5:35 PM 54.3 °F - 30.2 °F 40% 29.92 in 10.0 mi ESE 5.8 mph - N/A   Clear
5:55 PM 54.1 °F - 30.2 °F 40% 29.91 in 10.0 mi East 6.9 mph - N/A   Clear
6:15 PM 54.1 °F - 30.4 °F 40% 29.91 in 10.0 mi East 6.9 mph - N/A   Clear
6:35 PM 52.7 °F - 30.2 °F 42% 29.91 in 10.0 mi East 10.4 mph - N/A   Clear
6:55 PM 51.1 °F - 30.0 °F 44% 29.91 in 10.0 mi East 9.2 mph - N/A   Clear
7:15 PM 49.6 °F - 30.4 °F 48% 29.91 in 10.0 mi East 6.9 mph - N/A   Clear
7:35 PM 48.0 °F - 30.6 °F 51% 29.91 in 10.0 mi ENE 8.1 mph - N/A   Clear
7:55 PM 46.9 °F - 30.6 °F 53% 29.91 in 10.0 mi ENE 6.9 mph - N/A   Clear
8:15 PM 45.9 °F 42.9 °F 30.2 °F 54% 29.91 in 10.0 mi ENE 5.8 mph - N/A   Clear
8:35 PM 45.1 °F 40.8 °F 30.2 °F 56% 29.91 in 10.0 mi East 8.1 mph - N/A   Clear
8:55 PM 44.6 °F 40.2 °F 30.2 °F 57% 29.91 in 10.0 mi East 8.1 mph - N/A   Clear
9:15 PM 43.7 °F 39.7 °F 30.2 °F 59% 29.92 in 10.0 mi East 6.9 mph - N/A   Clear
9:35 PM 43.2 °F 39.0 °F 30.2 °F 60% 29.92 in 10.0 mi East 6.9 mph - N/A   Clear
9:55 PM 42.4 °F 38.8 °F 30.2 °F 62% 29.93 in 10.0 mi East 5.8 mph - N/A   Clear
10:15 PM 41.9 °F 36.9 °F 30.2 °F 63% 29.94 in 10.0 mi East 8.1 mph - N/A   Clear
10:35 PM 41.0 °F 37.1 °F 30.2 °F 65% 29.94 in 10.0 mi East 5.8 mph - N/A   Clear
10:55 PM 40.3 °F 36.3 °F 30.2 °F 67% 29.93 in 10.0 mi East 5.8 mph - N/A   Clear
11:15 PM 39.4 °F 35.2 °F 30.0 °F 69% 29.94 in 10.0 mi East 5.8 mph - N/A   Clear
11:35 PM 39.0 °F 34.8 °F 30.0 °F 70% 29.93 in 10.0 mi East 5.8 mph - N/A   Clear
11:55 PM 39.2 °F 34.2 °F 30.2 °F 70% 29.93 in 10.0 mi East 6.9 mph - N/A   Clear